Location: Bratislava
(0.0000°N, 17.1167°E)
Time: 03:57:03
(UTC+01:00)

ARIANE 5 R/B - Pass Details

Date: 24 January 2021
Orbit: 274 x 33377 km, 1.2° (Epoch: 06 March)

Event Time Altitude Azimuth Distance (km) Brightness Sun altitude
Rises 18:41:40 0° 271° (W) 7,453 9.1 -9.0°
Reaches altitude 10° 18:49:24 10° 270° (W) 3,887 7.4 -10.8°
Maximum altitude 18:56:30 83° 182° (S) 518 1.7 -12.5°
Enters shadow 18:58:02 21° 95° (E) 912 2.4 -12.8°
